Simultaneous Nadir Overpasses (SNOs) Predictions

Prediction of SNOs between GOES-16 and NPP Satellite Orbit:

Table of predicted SNOs for the next 14.0 days since TLE Epoch: 8/19/2023
Index Date Time (GOES-16) GOES-16 Lat,Lon NPP Lat,Lon Distance(km) Time Diff (sec)
1 08/19/2023 06:39:59 0.04, -75.21 0.69, -78.00 318.59 80
2 08/20/2023 06:18:34 0.04, -75.21 -0.36, -73.47 198.28 80
3 08/21/2023 18:40:30 -0.04, -75.22 -0.86, -78.77 405.04 80
4 08/22/2023 18:24:25 -0.04, -75.23 0.19, -74.25 112.04 80
5 08/24/2023 06:46:12 0.04, -75.23 1.01, -79.51 488.10 80
6 08/25/2023 06:24:47 0.03, -75.24 -0.04, -74.99 28.91 80
7 08/27/2023 18:27:58 -0.01, -75.26 -0.11, -75.77 57.74 80
8 08/28/2023 18:11:52 0.00, -75.27 0.89, -71.24 459.36 80
9 08/30/2023 06:33:40 -0.01, -75.28 0.25, -76.51 140.02 80
10 08/31/2023 06:12:14 -0.00, -75.29 -0.75, -71.98 377.87 80
11 09/01/2023 18:34:10 0.00, -75.32 -0.44, -77.28 223.68 80
